Preview of NWS' New Version of Forecast
This preview is not operational and should not be used for support decisions.

Regional Weather Roundup (RWR)

Issued by National Weather Service (NWS)

                            
000
ASUS46 KSEW 161210
RWRWA 

WASHINGTON REGIONAL WEATHER ROUNDUP
NATIONAL WEATHER SERVICE SEATTLE WA
500 AM PDT TUE JUL 16 2019

NOTE:"FAIR" INDICATES FEW OR NO CLOUDS BELOW 12,000 FEET WITH NO 
SIGNIFICANT WEATHER AND/OR OBSTRUCTIONS TO VISIBILITY.

WAZ507-509-555>559-161300-
SEATTLE, TACOMA, EVERETT, AND VICINITY
  
CITY           SKY/WX    TMP DP  RH WIND       PRES   REMARKS
EVERETT        CLOUDY    60  56  86 N6        30.04S                  
6HR MIN TEMP:  60; 6HR MAX TEMP:  62;                                

BOEING FIELD   MOCLDY    63  56  78 CALM      30.02S                  
6HR MIN TEMP:  63; 6HR MAX TEMP:  69;                                

RENTON         CLOUDY    64  59  83 CALM      30.02S                  
6HR MIN TEMP:  64; 6HR MAX TEMP:  68;                                

SEATAC AIRPORT MOCLDY    62  57  83 CALM      30.03S                  
6HR MIN TEMP:  62; 6HR MAX TEMP:  67; 6HR PCP: TRACE;                

JBLM-MCCHORD   CLOUDY    61  61 100 S3        30.03S                  
6HR MIN TEMP:  59; 6HR MAX TEMP:  64;                                

PUYALLUP       CLOUDY    63  63 100 CALM      30.03F                  
BREMERTON      MOCLDY    58  57  97 E3          N/A                   
6HR MIN TEMP:  57; 6HR MAX TEMP:  61;                                

JBLM-FT LEWIS  NOT AVBL                                               
TACOMA NARROWS CLOUDY    59  58  96 CALM      30.03F                  
6HR MIN TEMP:  58; 6HR MAX TEMP:  64;                                

$$
 
WAZ001-503-506-510-514-515-161300-
NORTH INTERIOR
  
CITY           SKY/WX    TMP DP  RH WIND       PRES   REMARKS
BELLINGHAM     CLEAR     54  50  86 CALM      30.01S                  
6HR MIN TEMP:  53; 6HR MAX TEMP:  65;                                

FRIDAY HARBOR  FOG       51  51 100 CALM      30.02S VSB 1            
6HR MIN TEMP:  49; 6HR MAX TEMP:  53;                                

EASTSOUND      CLEAR     57  55  94 VRB5      29.99F                  
PORT ANGELES   FOG       55  55 100 W6        30.04R VSB 3/4          
6HR MIN TEMP:  53; 6HR MAX TEMP:  59;                                

EDIZ HOOK      CLOUDY    54  54  99 W7        30.03S                  
6HR MIN TEMP:  54; 6HR MAX TEMP:  60;                                

PORT TOWNSEND  CLOUDY    52  52 100 CALM      30.02S                  
NAS WHIDBEY    MOCLDY    59  54  83 SW5       30.06F                  
6HR MIN TEMP:  58; 6HR MAX TEMP:  62;                                

ARLINGTON      CLEAR     54  54 100 N3        30.03F                  
6HR MIN TEMP:  53; 6HR MAX TEMP:  62;                                

BURLINGTON     CLEAR     54  54 100 CALM      30.03S FOG              
$$
 
WAZ020-022-039-040-504-511-512-161300-
SOUTHWEST INTERIOR
  
CITY           SKY/WX    TMP DP  RH WIND       PRES   REMARKS
SHELTON        FOG       59  57  93 W3        30.01S VSB 1            
6HR MIN TEMP:  57; 6HR MAX TEMP:  62;                                

OLYMPIA        CLOUDY    60  58  92 CALM      30.03S                  
6HR MIN TEMP:  59; 6HR MAX TEMP:  63;                                

CHEHALIS       FOG       57  57 100 SW3       30.03S VSB 1/4          
KELSO          CLOUDY    62  60  93 N3        30.03S                  
6HR MIN TEMP:  62; 6HR MAX TEMP:  64;                                

VANCOUVER      CLOUDY    64  59  83 NW3       30.01S                  
6HR MIN TEMP:  64; 6HR MAX TEMP:  68;                                

SCAPPOOSE, OR  MOCLDY    63  58  83 CALM      30.00S                  
6HR MIN TEMP:  63; 6HR MAX TEMP:  66;                                

PORTLAND, OR   CLOUDY    65  59  81 NW6       30.02R                  
6HR MIN TEMP:  65; 6HR MAX TEMP:  69; 6HR PCP: TRACE;                

$$
 
WAZ021-516-517-161300-
WASHINGTON COAST
  
CITY           SKY/WX    TMP DP  RH WIND       PRES   REMARKS
FORKS          CLEAR     57  55  93 CALM      30.03S                  
6HR MIN TEMP:  57; 6HR MAX TEMP:  62;                                

HOQUIAM        FOG       58  58 100 N5        30.03S VSB 1/2          
6HR MIN TEMP:  58; 6HR MAX TEMP:  64;                                

ASTORIA, OR    CLOUDY    62  59  90 CALM      30.02S                  
$$
 
WAZ019-023-024-040-567>569-161300-
CASCADE MOUNTAINS AND COLUMBIA GORGE
  
CITY           SKY/WX    TMP DP  RH WIND       PRES   REMARKS
STAMPEDE PASS  FOG       51  50  96 VRB3      30.07S VSB 1/4          
6HR MIN TEMP:  51; 6HR MAX TEMP:  52;                                

TROUTDALE, OR  CLOUDY    66  60  81 W5        30.01S                  
6HR MIN TEMP:  66; 6HR MAX TEMP:  70;                                

HOOD RIVER, OR PTSUNNY   59  54  82 S5        30.00R                  
THE DALLES, OR MOCLDY    62  56  80 SW5       29.97S                  
6HR MIN TEMP:  62; 6HR MAX TEMP:  70;                                

$$

WAZ026-027-041>044-520-521-161300-
EAST SLOPES
  
CITY           SKY/WX    TMP DP  RH WIND       PRES   REMARKS
OMAK           LGT RAIN  61  51  70 NW12      29.96S                  
6HR MIN TEMP:  61; 6HR MAX TEMP:  69; 6HR PCP: TRACE;                

WENATCHEE      CLEAR     61  49  64 W7        29.96R                  
6HR MIN TEMP:  61; 6HR MAX TEMP:  68;                                

ELLENSBURG     CLEAR     58  51  78 NW10      29.98S                  
6HR MIN TEMP:  57; 6HR MAX TEMP:  62;                                

YAKIMA         PTCLDY    51  48  89 W3        29.97S                  
6HR MIN TEMP:  51; 6HR MAX TEMP:  68;                                

SUNNYSIDE ARPT PTSUNNY   55  53  94 E3        29.97                   
6HR MIN TEMP:  55; 6HR MAX TEMP:  67;                                

YAKIMA TC      FAIR      54  47  78 SW3       29.96S                  
6HR MIN TEMP:  54; 6HR MAX TEMP:  65;                                

$$

WAZ028-034-035-161300-
COLUMBIA BASIN
  
CITY           SKY/WX    TMP DP  RH WIND       PRES   REMARKS
EPHRATA        CLEAR     63  47  55 NW7       29.93S                  
6HR MIN TEMP:  61; 6HR MAX TEMP:  70;                                

MOSES LAKE     CLEAR     59  50  72 CALM      29.94S                  
6HR MIN TEMP:  59; 6HR MAX TEMP:  71;                                

PASCO          MOCLDY    61  55  81 E3        29.96S                  
6HR MIN TEMP:  61; 6HR MAX TEMP:  69;                                

RICHLAND ARPT  PTSUNNY   65  55  70 E6        29.95S                  
6HR MIN TEMP:  63; 6HR MAX TEMP:  71;                                

HERMISTON, OR  CLOUDY    61  53  75 NE3       29.97R                  
6HR MIN TEMP:  61; 6HR MAX TEMP:  71;                                

$$

WAZ036>038-161300-
NORTHEAST WASHINGTON
  
CITY           SKY/WX    TMP DP  RH WIND       PRES   REMARKS
SPOKANE GEIGER LGT RAIN  57  51  80 VRB5      29.99S                  
6HR MIN TEMP:  57; 6HR MAX TEMP:  65; 6HR PCP:  0.13;                

SPOKANE FELTS  MOCLDY    60  54  80 CALM      29.98S                  
6HR MIN TEMP:  60; 6HR MAX TEMP:  65;                                

FAIRCHILD AFB  CLOUDY    57  51  80 E5        29.99S                  
6HR MIN TEMP:  57; 6HR MAX TEMP:  62; 6HR PCP: TRACE;                

COEURDALENE,ID LGT RAIN  58  55  90 N3        30.00S                  
6HR MIN TEMP:  58; 6HR MAX TEMP:  61; 6HR PCP: TRACE;                

DEER PARK      CLOUDY    57  52  83 MISG      29.99S                  
6HR MIN TEMP:  55; 6HR MAX TEMP:  58;                                

$$

WAZ029>033-161300-
SOUTHEAST WASHINGTON
  
CITY           SKY/WX    TMP DP  RH WIND       PRES   REMARKS
PULLMAN        MOCLDY    55  49  80 CALM      30.02S                  
6HR MIN TEMP:  53; 6HR MAX TEMP:  59;                                

LEWISTON, ID   MOCLDY    59  52  77 CALM      29.98S                  
6HR MIN TEMP:  59; 6HR MAX TEMP:  66;                                

WALLA WALLA    CLOUDY    65  50  58 SE10      29.99S                  
6HR MIN TEMP:  65; 6HR MAX TEMP:  70;                                

PENDLETON, OR  CLOUDY    64  51  62 SW6       30.00R                  
6HR MIN TEMP:  63; 6HR MAX TEMP:  69;                                

$$